Hagerstown, MD

6:16 AM EDT on July 23, 2017 (GMT -0400)
Hagerstown Regional-Henson

Weather History for KHGR - April, 2014

Change the Weather History Date:

Thursday, April 10, 2014

  Actual Average Record
Temperature  
Mean Temperature 53 °F 51 °F  
Max Temperature 70 °F 61 °F 89 °F (2013)
Min Temperature 36 °F 41 °F 21 °F (1997)
Degree Days  
Heating Degree Days 12 14  
Month to date heating degree days 155 160  
Since 1 July heating degree days 5029 4792  
Cooling Degree Days 0 0  
Month to date cooling degree days 0 0  
Year to date cooling degree days 0 1  
Growing Degree Days 4 (Base 50)    
Moisture  
Dew Point 29 °F    
Average Humidity 43    
Maximum Humidity 64    
Minimum Humidity 22    
Precipitation  
Precipitation 0.00 in 0.12 in 0.02 in (2015)
Month to date precipitation 0.41 1.27  
Year to date precipitation 5.86 9.88  
Sea Level Pressure  
Sea Level Pressure 30.09 in    
Wind  
Wind Speed 10 mph (South)    
Max Wind Speed 25 mph    
Max Gust Speed 33 mph    
Visibility 10 miles    
Events      
T = Trace of Precipitation, MM = Missing Value Source: NWS Daily Summary

Daily Weather History Graph

Daily Weather History Graph

Search for Another Location

Airport or City:

Trip Planner

Search our weather history database for the weather conditions in past years. The results will help you decide how hot, cold, wet, or windy it might be!

Date:

Astronomy

Apr. 10, 2014 Rise Set
Actual Time 6:41 AM EDT 7:44 PM EDT
Civil Twilight 6:13 AM EDT 8:11 PM EDT
Nautical Twilight 5:40 AM EDT 8:44 PM EDT
Astronomical Twilight 5:06 AM EDT 9:19 PM EDT
Moon 3:26 PM EDT (4/10) 4:02 AM EDT (4/10)
Length of Visible Light 13h 58m
Length of Day
13h 03m
Waxing Gibbous, 79% of the Moon is Illuminated
Apr 10
Waxing Gibbous
Apr 15
Full
Apr 22
Last Quarter
Apr 29
New
May 6
First Quarter

Hourly Weather History & Observations

Time (EDT) Temp. Windchill Dew Point Humidity Pressure Visibility Wind Dir Wind Speed Gust Speed Precip Events Conditions
12:53 AM 46.9 °F - 23.0 °F 39% 30.10 in 10.0 mi Calm Calm - N/A   Clear
1:53 AM 46.0 °F 44.8 °F 21.9 °F 39% 30.12 in 10.0 mi West 3.5 mph - N/A   Clear
3:53 AM 46.9 °F - 23.0 °F 39% 30.13 in 10.0 mi SW 3.5 mph - N/A   Clear
4:53 AM 42.1 °F 38.4 °F 25.0 °F 51% 30.14 in 10.0 mi SSE 5.8 mph - N/A   Clear
5:53 AM 39.9 °F 36.7 °F 25.0 °F 55% 30.16 in 10.0 mi South 4.6 mph - N/A   Clear
6:53 AM 37.9 °F 34.4 °F 26.1 °F 62% 30.18 in 10.0 mi SSE 4.6 mph - N/A   Clear
7:53 AM 42.1 °F 39.2 °F 27.0 °F 55% 30.21 in 10.0 mi South 4.6 mph - N/A   Clear
8:53 AM 48.9 °F - 28.9 °F 46% 30.21 in 10.0 mi South 6.9 mph - N/A   Clear
9:53 AM 54.0 °F - 30.0 °F 40% 30.21 in 10.0 mi South 12.7 mph - N/A   Clear
10:53 AM 57.9 °F - 30.9 °F 36% 30.19 in 10.0 mi South 13.8 mph 19.6 mph N/A   Clear
11:53 AM 61.0 °F - 30.0 °F 31% 30.17 in 10.0 mi SSW 12.7 mph 17.3 mph N/A   Clear
12:53 PM 64.0 °F - 30.9 °F 29% 30.12 in 10.0 mi South 17.3 mph 21.9 mph N/A   Clear
1:53 PM 66.0 °F - 30.0 °F 26% 30.10 in 10.0 mi South 21.9 mph 27.6 mph N/A   Clear
2:53 PM 68.0 °F - 28.9 °F 23% 30.07 in 10.0 mi SSW 19.6 mph 27.6 mph N/A   Clear
3:53 PM 69.1 °F - 30.0 °F 23% 30.03 in 10.0 mi South 15.0 mph 25.3 mph N/A   Clear
4:53 PM 70.0 °F - 30.0 °F 23% 30.01 in 10.0 mi South 19.6 mph 26.5 mph N/A   Clear
5:53 PM 70.0 °F - 30.9 °F 24% 30.00 in 10.0 mi South 20.7 mph 27.6 mph N/A   Clear
6:53 PM 68.0 °F - 30.9 °F 25% 29.99 in 10.0 mi South 16.1 mph 24.2 mph N/A   Clear
7:53 PM 64.9 °F - 30.9 °F 28% 29.99 in 10.0 mi SSE 10.4 mph - N/A   Clear
8:53 PM 64.0 °F - 30.9 °F 29% 29.99 in 10.0 mi South 13.8 mph - N/A   Clear
9:53 PM 64.9 °F - 30.9 °F 28% 29.99 in 10.0 mi South 19.6 mph 25.3 mph N/A   Clear
10:53 PM 64.0 °F - 30.9 °F 29% 30.00 in 10.0 mi South 16.1 mph - N/A   Clear
11:53 PM 63.0 °F - 30.9 °F 30% 30.00 in 10.0 mi South 12.7 mph - N/A   Clear